Other Public Products
Issued by NWS Charleston, SC

Current Version | Previous Version | Text Only | Print | Product List | Glossary Off
Versions: 1 2 3 4 5 6 7 8 9 10 11 12 13 14 15 16 17 18 19 20 21 22 23 24 25 26 27 28 29 30 31 32 33 34 35 36 37 38 39 40 41 42 43 44 45 46 47 48 49 50

420
FPUS82 KCHS 220427
OPUCHS

TEST...KCHS/KSAV Gateway Observations...TEST
National Weather Service Charleston SC
1200 AM EDT SAT JUL 22 2017

NOTE: "fair" indicates few or no clouds below 12,000 feet with no
significant weather and/or obstructions to visibility.

SCZ050-WAZ558-NCZ071-TXZ119-213-PAZ071-DCZ001-FLZ074-172-MI076-
NYZ176-178-MAZ016-IL014-TNZ027-NJZ106-GAZ044-MD014-220500-

...Gateway Observations for Charleston International...

CITY           SKY/WX    TMP DP  RH WIND       PRES   REMARKS
Chas Airport   CLEAR     78  75  90 S6        30.03S
Seattle        MOCLDY    67  53  61 NW5       30.14R
Charlotte      PTCLDY    82  69  64 SW8       30.02S
Dallas DFW     CLEAR     89  71  55 S12       29.93R HX  95
Dallas Love    PTCLDY    90  69  50 SE16      29.94R HX  94
Philladelphia  CLOUDY    84  71  65 SW5       29.90S
Wash National  CLOUDY    87  76  69 NW9       29.90S HX  97
Baltimore      CLOUDY    80  76  87 CALM      29.89F
Miami          CLOUDY    79  74  84 CALM      30.09S
Detroit        CLOUDY    78  69  73 S3        29.95S
Newark         MOCLDY    85  69  58 W9        29.87S
Laguardia      CLOUDY    88  71  57 W10       29.86S HX  94
J F K          MOCLDY    82  74  76 SW10      29.88S
Boston Logan   CLOUDY    80  59  48 W14       29.82R
Ft. Lauderdale MOCLDY    80  74  81 CALM      30.07F
Chicago O`Hare TSTM      74  71  91 E6        29.89R FOG
Chicago Midway TSTM      77  74  90 SE7       29.87S FOG
Houston Bush   MOCLDY    84  75  74 S6        29.97R HX  92
Houston Hobby  MOCLDY    84  75  74 S5        29.98R HX  92
Nashville      CLEAR     83  74  74 S3        30.00R
Atlanta        PTCLDY    80  72  76 S12       30.04S

$$

GAZ044-118-TXZ119-213-NCZ071-DCZ001-MDZ014-506-PAZ021-071-NJZ106-
NYZ176-178-MAZ106-OHZ011-021-055-MIZ076-KYZ091-ILZ014-INZ047-
MNZ060-ONZ431-220500-

...Gateway Observations for Savannah International...

CITY           SKY/WX    TMP DP  RH WIND       PRES   REMARKS
Savannah Arpt  CLEAR     81  73  76 W3        30.04S
Atlanta        PTCLDY    80  72  76 S12       30.04S
Charlotte      PTCLDY    82  69  64 SW8       30.02S
Dallas DFW     CLEAR     89  71  55 S12       29.93R HX  95
Houston Bush   MOCLDY    84  75  74 S6        29.97R HX  92
Wash National  CLOUDY    87  76  69 NW9       29.90S HX  97
Wash Dulles    MOCLDY    81  69  67 N7        29.92S
Baltimore      CLOUDY    80  76  87 CALM      29.89F
Philadelphia   CLOUDY    84  71  65 SW5       29.90S
Newark         MOCLDY    85  69  58 W9        29.87S
Laguardia      CLOUDY    88  71  57 W10       29.86S HX  94
J F K          MOCLDY    82  74  76 SW10      29.88S
Boston         CLOUDY    80  59  48 W14       29.82R
Pittsburg      CLOUDY    76  73  91 W6        30.00R
Akron          PTCLDY    76  67  73 SE6       30.00S
Cleveland      MOCLDY    76  69  79 S5        29.98S
Cincinnati     CLOUDY    76  73  91 S5        29.97S
Columbus       CLOUDY    73  73 100 S7        29.98S
Detroit        CLOUDY    78  69  73 S3        29.95S
Chicago O`Hare TSTM      74  71  91 E6        29.89R FOG
Minneapolis    CLOUDY    76  67  73 E9        29.87R
Indianapolis   CLOUDY    79  76  90 E9        29.93F
Toronto Canada MOCLDY    72  57  60 W7        29.93R

$$




USA.gov is the U.S. government's official web portal to all federal, state and local government web resources and services.